Year,Month,Day,Hour,Minute,Value (Times are PST for temperature in C)
2016,05,20,00,00,9.80
2016,05,20,00,01,9.80
2016,05,20,00,02,9.80
2016,05,20,00,03,9.70
2016,05,20,00,04,9.70
2016,05,20,00,05,9.70
2016,05,20,00,06,9.70
2016,05,20,00,07,9.70
2016,05,20,00,08,9.60
2016,05,20,00,09,9.60
2016,05,20,00,10,9.60
2016,05,20,00,11,9.60
2016,05,20,00,12,9.60
2016,05,20,00,13,9.60
2016,05,20,00,14,9.60
2016,05,20,00,15,9.60
2016,05,20,00,16,9.60
2016,05,20,00,17,9.60
2016,05,20,00,18,9.60
2016,05,20,00,19,9.60
2016,05,20,00,20,9.60
2016,05,20,00,21,9.60
2016,05,20,00,22,9.60
2016,05,20,00,23,9.60
2016,05,20,00,24,9.60
2016,05,20,00,25,9.70
2016,05,20,00,26,9.70
2016,05,20,00,27,9.70
2016,05,20,00,28,9.70
2016,05,20,00,29,9.80
2016,05,20,00,30,9.80
2016,05,20,00,31,9.80
2016,05,20,00,32,9.80
2016,05,20,00,33,9.80
2016,05,20,00,34,9.80
2016,05,20,00,35,9.80
2016,05,20,00,36,9.80
2016,05,20,00,37,9.80
2016,05,20,00,38,9.80
2016,05,20,00,39,9.80
2016,05,20,00,40,9.80
2016,05,20,00,41,9.80
2016,05,20,00,42,9.80
2016,05,20,00,43,9.80
2016,05,20,00,44,9.80
2016,05,20,00,45,9.90
2016,05,20,00,46,9.90
2016,05,20,00,47,9.90
2016,05,20,00,48,9.90
2016,05,20,00,49,9.90
2016,05,20,00,50,9.90
2016,05,20,00,51,9.90
2016,05,20,00,52,9.90
2016,05,20,00,53,9.90
2016,05,20,00,54,9.90
2016,05,20,00,55,9.90
2016,05,20,00,56,9.90
2016,05,20,00,57,9.90
2016,05,20,00,58,10.00
2016,05,20,00,59,10.00
2016,05,20,01,00,10.00
2016,05,20,01,01,10.00
2016,05,20,01,02,10.10
2016,05,20,01,03,10.10
2016,05,20,01,04,10.10
2016,05,20,01,05,10.10
2016,05,20,01,06,10.20
2016,05,20,01,07,10.20
2016,05,20,01,08,10.20
2016,05,20,01,09,10.30
2016,05,20,01,10,10.30
2016,05,20,01,11,10.30
2016,05,20,01,12,10.30
2016,05,20,01,13,10.30
2016,05,20,01,14,10.30
2016,05,20,01,15,10.30
2016,05,20,01,16,10.30
2016,05,20,01,17,10.30
2016,05,20,01,18,10.30
2016,05,20,01,19,10.30
2016,05,20,01,20,10.30
2016,05,20,01,21,10.30
2016,05,20,01,22,10.30
2016,05,20,01,23,10.30
2016,05,20,01,24,10.30
2016,05,20,01,25,10.30
2016,05,20,01,26,10.30
2016,05,20,01,27,10.30
2016,05,20,01,28,10.30
2016,05,20,01,29,10.30
2016,05,20,01,30,10.30
2016,05,20,01,31,10.30
2016,05,20,01,32,10.30
2016,05,20,01,33,10.30
2016,05,20,01,34,10.30
2016,05,20,01,35,10.30
2016,05,20,01,36,10.30
2016,05,20,01,37,10.30
2016,05,20,01,38,10.20
2016,05,20,01,39,10.20
2016,05,20,01,40,10.20
2016,05,20,01,41,10.20
2016,05,20,01,42,10.20
2016,05,20,01,43,10.20
2016,05,20,01,44,10.20
2016,05,20,01,45,10.10
2016,05,20,01,46,10.10
2016,05,20,01,47,10.10
2016,05,20,01,48,10.10
2016,05,20,01,49,10.10
2016,05,20,01,50,10.10
2016,05,20,01,51,10.10
2016,05,20,01,52,10.10
2016,05,20,01,53,10.10
2016,05,20,01,54,10.10
2016,05,20,01,55,10.10
2016,05,20,01,56,10.10
2016,05,20,01,57,10.10
2016,05,20,01,58,10.10
2016,05,20,01,59,10.10
2016,05,20,02,00,10.10
2016,05,20,02,01,10.10
2016,05,20,02,02,10.10
2016,05,20,02,03,10.10
2016,05,20,02,04,10.10
2016,05,20,02,05,10.20
2016,05,20,02,06,10.20
2016,05,20,02,07,10.20
2016,05,20,02,08,10.20
2016,05,20,02,09,10.20
2016,05,20,02,10,10.10
2016,05,20,02,11,10.20
2016,05,20,02,12,10.20
2016,05,20,02,13,10.20
2016,05,20,02,14,10.20
2016,05,20,02,15,10.20
2016,05,20,02,16,10.20
2016,05,20,02,17,10.20
2016,05,20,02,18,10.20
2016,05,20,02,19,10.20
2016,05,20,02,20,10.20
2016,05,20,02,21,10.30
2016,05,20,02,22,10.30
2016,05,20,02,23,10.30
2016,05,20,02,24,10.30
2016,05,20,02,25,10.30
2016,05,20,02,26,10.30
2016,05,20,02,27,10.30
2016,05,20,02,28,10.30
2016,05,20,02,29,10.30
2016,05,20,02,30,10.30
2016,05,20,02,31,10.30
2016,05,20,02,32,10.30
2016,05,20,02,33,10.30
2016,05,20,02,34,10.30
2016,05,20,02,35,10.30
2016,05,20,02,36,10.30
2016,05,20,02,37,10.30
2016,05,20,02,38,10.30
2016,05,20,02,39,10.30
2016,05,20,02,40,10.20
2016,05,20,02,41,10.20
2016,05,20,02,42,10.20
2016,05,20,02,43,10.10
2016,05,20,02,44,10.10
2016,05,20,02,45,10.00
2016,05,20,02,46,10.00
2016,05,20,02,47,10.00
2016,05,20,02,48,10.00
2016,05,20,02,49,10.00
2016,05,20,02,50,10.00
2016,05,20,02,51,10.00
2016,05,20,02,52,10.00
2016,05,20,02,53,10.00
2016,05,20,02,54,10.00
2016,05,20,02,55,10.00
2016,05,20,02,56,10.00
2016,05,20,02,57,10.00
2016,05,20,02,58,9.90
2016,05,20,02,59,9.90
2016,05,20,03,00,9.90
2016,05,20,03,01,9.90
2016,05,20,03,02,9.90
2016,05,20,03,03,9.90
2016,05,20,03,04,9.90
2016,05,20,03,05,9.90
2016,05,20,03,06,9.90
2016,05,20,03,07,9.90
2016,05,20,03,08,9.90
2016,05,20,03,09,9.80
2016,05,20,03,10,9.80
2016,05,20,03,11,9.80
2016,05,20,03,12,9.80
2016,05,20,03,13,9.80
2016,05,20,03,14,9.70
2016,05,20,03,15,9.70
2016,05,20,03,16,9.70
2016,05,20,03,17,9.70
2016,05,20,03,18,9.70
2016,05,20,03,19,9.60
2016,05,20,03,20,9.60
2016,05,20,03,21,9.60
2016,05,20,03,22,9.60
2016,05,20,03,23,9.60
2016,05,20,03,24,9.60
2016,05,20,03,25,9.50
2016,05,20,03,26,9.50
2016,05,20,03,27,9.50
2016,05,20,03,28,9.40
2016,05,20,03,29,9.40
2016,05,20,03,30,9.40
2016,05,20,03,31,9.40
2016,05,20,03,32,9.40
2016,05,20,03,33,9.40
2016,05,20,03,34,9.40
2016,05,20,03,35,9.40
2016,05,20,03,36,9.40
2016,05,20,03,37,9.40
2016,05,20,03,38,9.30
2016,05,20,03,39,9.30
2016,05,20,03,40,9.30
2016,05,20,03,41,9.30
2016,05,20,03,42,9.30
2016,05,20,03,43,9.30
2016,05,20,03,44,9.20
2016,05,20,03,45,9.20
2016,05,20,03,46,9.20
2016,05,20,03,47,9.20
2016,05,20,03,48,9.20
2016,05,20,03,49,9.10
2016,05,20,03,50,9.10
2016,05,20,03,51,9.10
2016,05,20,03,52,9.10
2016,05,20,03,53,9.10
2016,05,20,03,54,9.10
2016,05,20,03,55,9.10
2016,05,20,03,56,9.10
2016,05,20,03,57,9.10
2016,05,20,03,58,9.10
2016,05,20,03,59,9.00
2016,05,20,04,00,9.00
2016,05,20,04,01,9.00
2016,05,20,04,02,9.00
2016,05,20,04,03,9.00
2016,05,20,04,04,8.90
2016,05,20,04,05,8.90
2016,05,20,04,06,8.90
2016,05,20,04,07,8.90
2016,05,20,04,08,8.90
2016,05,20,04,09,8.90
2016,05,20,04,10,8.80
2016,05,20,04,11,8.80
2016,05,20,04,12,8.80
2016,05,20,04,13,8.80
2016,05,20,04,14,8.80
2016,05,20,04,15,8.80
2016,05,20,04,16,8.80
2016,05,20,04,17,8.80
2016,05,20,04,18,8.80
2016,05,20,04,19,8.80
2016,05,20,04,20,8.80
2016,05,20,04,21,8.80
2016,05,20,04,22,8.70
2016,05,20,04,23,8.70
2016,05,20,04,24,8.70
2016,05,20,04,25,8.70
2016,05,20,04,26,8.70
2016,05,20,04,27,8.70
2016,05,20,04,28,8.60
2016,05,20,04,29,8.60
2016,05,20,04,30,8.60
2016,05,20,04,31,8.50
2016,05,20,04,32,8.50
2016,05,20,04,33,8.40
2016,05,20,04,34,8.40
2016,05,20,04,35,8.40
2016,05,20,04,36,8.40
2016,05,20,04,37,8.30
2016,05,20,04,38,8.30
2016,05,20,04,39,8.30
2016,05,20,04,40,8.30
2016,05,20,04,41,8.20
2016,05,20,04,42,8.20
2016,05,20,04,43,8.20
2016,05,20,04,44,8.20
2016,05,20,04,45,8.20
2016,05,20,04,46,8.20
2016,05,20,04,47,8.20
2016,05,20,04,48,8.20
2016,05,20,04,49,8.20
2016,05,20,04,50,8.30
2016,05,20,04,51,8.40
2016,05,20,04,52,8.40
2016,05,20,04,53,8.40
2016,05,20,04,54,8.40
2016,05,20,04,55,8.40
2016,05,20,04,56,8.40
2016,05,20,04,57,8.40
2016,05,20,04,58,8.40
2016,05,20,04,59,8.40
2016,05,20,05,00,8.40
2016,05,20,05,01,8.40
2016,05,20,05,02,8.40
2016,05,20,05,03,8.40
2016,05,20,05,04,8.40
2016,05,20,05,05,8.40
2016,05,20,05,06,8.30
2016,05,20,05,07,8.30
2016,05,20,05,08,8.30
2016,05,20,05,09,8.30
2016,05,20,05,10,8.30
2016,05,20,05,11,8.30
2016,05,20,05,12,8.30
2016,05,20,05,13,8.30
2016,05,20,05,14,8.30
2016,05,20,05,15,8.30
2016,05,20,05,16,8.30
2016,05,20,05,17,8.30
2016,05,20,05,18,8.30
2016,05,20,05,19,8.30
2016,05,20,05,20,8.20
2016,05,20,05,21,8.20
2016,05,20,05,22,8.20
2016,05,20,05,23,8.20
2016,05,20,05,24,8.20
2016,05,20,05,25,8.30
2016,05,20,05,26,8.30
2016,05,20,05,27,8.30
2016,05,20,05,28,8.30
2016,05,20,05,29,8.40
2016,05,20,05,30,8.40
2016,05,20,05,31,8.40
2016,05,20,05,32,8.40
2016,05,20,05,33,8.40
2016,05,20,05,34,8.50
2016,05,20,05,35,8.50
2016,05,20,05,36,8.50
2016,05,20,05,37,8.50
2016,05,20,05,38,8.50
2016,05,20,05,39,8.50
2016,05,20,05,40,8.60
2016,05,20,05,41,8.60
2016,05,20,05,42,8.60
2016,05,20,05,43,8.60
2016,05,20,05,44,8.60
2016,05,20,05,45,8.60
2016,05,20,05,46,8.60
2016,05,20,05,47,8.60
2016,05,20,05,48,8.60
2016,05,20,05,49,8.60
2016,05,20,05,50,8.70
2016,05,20,05,51,8.70
2016,05,20,05,52,8.60
2016,05,20,05,53,8.60
2016,05,20,05,54,8.60
2016,05,20,05,55,8.60
2016,05,20,05,56,8.60
2016,05,20,05,57,8.60
2016,05,20,05,58,8.60
2016,05,20,05,59,8.60
2016,05,20,06,00,8.60
2016,05,20,06,01,8.60
2016,05,20,06,02,8.60
2016,05,20,06,03,8.60
2016,05,20,06,04,8.60
2016,05,20,06,05,8.60
2016,05,20,06,06,8.70
2016,05,20,06,07,8.70
2016,05,20,06,08,8.70
2016,05,20,06,09,8.70
2016,05,20,06,10,8.80
2016,05,20,06,11,8.80
2016,05,20,06,12,8.80
2016,05,20,06,13,8.80
2016,05,20,06,14,8.80
2016,05,20,06,15,8.80
2016,05,20,06,16,8.80
2016,05,20,06,17,8.80
2016,05,20,06,18,8.80
2016,05,20,06,19,8.90
2016,05,20,06,20,8.90
2016,05,20,06,21,8.90
2016,05,20,06,22,8.90
2016,05,20,06,23,8.90
2016,05,20,06,24,9.00
2016,05,20,06,25,9.00
2016,05,20,06,26,9.00
2016,05,20,06,27,9.00
2016,05,20,06,28,9.10
2016,05,20,06,29,9.10
2016,05,20,06,30,9.10
2016,05,20,06,31,9.10
2016,05,20,06,32,9.10
2016,05,20,06,33,9.20
2016,05,20,06,34,9.20
2016,05,20,06,35,9.20
2016,05,20,06,36,9.20
2016,05,20,06,37,9.30
2016,05,20,06,38,9.30
2016,05,20,06,39,9.40
2016,05,20,06,40,9.40
2016,05,20,06,41,9.40
2016,05,20,06,42,9.40
2016,05,20,06,43,9.40
2016,05,20,06,44,9.40
2016,05,20,06,45,9.50
2016,05,20,06,46,9.50
2016,05,20,06,47,9.60
2016,05,20,06,48,9.60
2016,05,20,06,49,9.60
2016,05,20,06,50,9.50
2016,05,20,06,51,9.50
2016,05,20,06,52,9.50
2016,05,20,06,53,9.50
2016,05,20,06,54,9.50
2016,05,20,06,55,9.40
2016,05,20,06,56,9.40
2016,05,20,06,57,9.40
2016,05,20,06,58,9.40
2016,05,20,06,59,9.40
2016,05,20,07,00,9.50
2016,05,20,07,01,9.50
2016,05,20,07,02,9.50
2016,05,20,07,03,9.60
2016,05,20,07,04,9.60
2016,05,20,07,05,9.60
2016,05,20,07,06,9.60
2016,05,20,07,07,9.60
2016,05,20,07,08,9.70
2016,05,20,07,09,9.80
2016,05,20,07,10,9.80
2016,05,20,07,11,9.90
2016,05,20,07,12,10.00
2016,05,20,07,13,10.10
2016,05,20,07,14,10.20
2016,05,20,07,15,10.20
2016,05,20,07,16,10.20
2016,05,20,07,17,10.30
2016,05,20,07,18,10.30
2016,05,20,07,19,10.40
2016,05,20,07,20,10.40
2016,05,20,07,21,10.50
2016,05,20,07,22,10.50
2016,05,20,07,23,10.60
2016,05,20,07,24,10.60
2016,05,20,07,25,10.70
2016,05,20,07,26,10.70
2016,05,20,07,27,10.70
2016,05,20,07,28,10.80
2016,05,20,07,29,10.80
2016,05,20,07,30,10.80
2016,05,20,07,31,10.90
2016,05,20,07,32,10.90
2016,05,20,07,33,11.00
2016,05,20,07,34,11.00
2016,05,20,07,35,11.00
2016,05,20,07,36,11.10
2016,05,20,07,37,11.10
2016,05,20,07,38,11.20
2016,05,20,07,39,11.20
2016,05,20,07,40,11.20
2016,05,20,07,41,11.20
2016,05,20,07,42,11.30
2016,05,20,07,43,11.20
2016,05,20,07,44,11.20
2016,05,20,07,45,11.20
2016,05,20,07,46,11.20
2016,05,20,07,47,11.20
2016,05,20,07,48,11.20
2016,05,20,07,49,11.20
2016,05,20,07,50,11.30
2016,05,20,07,51,11.30
2016,05,20,07,52,11.30
2016,05,20,07,53,11.30
2016,05,20,07,54,11.30
2016,05,20,07,55,11.30
2016,05,20,07,56,11.40
2016,05,20,07,57,11.40
2016,05,20,07,58,11.40
2016,05,20,07,59,11.40
2016,05,20,08,00,11.50
2016,05,20,08,01,11.50
2016,05,20,08,02,11.50
2016,05,20,08,03,11.50
2016,05,20,08,04,11.60
2016,05,20,08,05,11.60
2016,05,20,08,06,11.60
2016,05,20,08,07,11.60
2016,05,20,08,08,11.60
2016,05,20,08,09,11.60
2016,05,20,08,10,11.50
2016,05,20,08,11,11.50
2016,05,20,08,12,11.50
2016,05,20,08,13,11.50
2016,05,20,08,14,11.60
2016,05,20,08,15,11.60
2016,05,20,08,16,11.60
2016,05,20,08,17,11.60
2016,05,20,08,18,11.60
2016,05,20,08,19,11.60
2016,05,20,08,20,11.60
2016,05,20,08,21,11.70
2016,05,20,08,22,11.70
2016,05,20,08,23,11.70
2016,05,20,08,24,11.60
2016,05,20,08,25,11.60
2016,05,20,08,26,11.60
2016,05,20,08,27,11.60
2016,05,20,08,28,11.60
2016,05,20,08,29,11.60
2016,05,20,08,30,11.60
2016,05,20,08,31,11.60
2016,05,20,08,32,11.70
2016,05,20,08,33,11.70
2016,05,20,08,34,11.70
2016,05,20,08,35,11.70
2016,05,20,08,36,11.70
2016,05,20,08,37,11.70
2016,05,20,08,38,11.80
2016,05,20,08,39,11.80
2016,05,20,08,40,11.80
2016,05,20,08,41,11.80
2016,05,20,08,42,11.80
2016,05,20,08,43,11.80
2016,05,20,08,44,11.90
2016,05,20,08,45,11.90
2016,05,20,08,46,11.90
2016,05,20,08,47,11.90
2016,05,20,08,48,11.90
2016,05,20,08,49,11.90
2016,05,20,08,50,11.90
2016,05,20,08,51,11.90
2016,05,20,08,52,11.90
2016,05,20,08,53,11.90
2016,05,20,08,54,11.90
2016,05,20,08,55,11.90
2016,05,20,08,56,11.90
2016,05,20,08,57,12.00
2016,05,20,08,58,12.00
2016,05,20,08,59,12.10
2016,05,20,09,00,12.10
2016,05,20,09,01,12.20
2016,05,20,09,02,12.30
2016,05,20,09,03,12.40
2016,05,20,09,04,12.50
2016,05,20,09,05,12.70
2016,05,20,09,06,12.80
2016,05,20,09,07,12.80
2016,05,20,09,08,12.90
2016,05,20,09,09,13.00
2016,05,20,09,10,13.00
2016,05,20,09,11,13.10
2016,05,20,09,12,13.10
2016,05,20,09,13,13.20
2016,05,20,09,14,13.30
2016,05,20,09,15,13.40
2016,05,20,09,16,13.40
2016,05,20,09,17,13.40
2016,05,20,09,18,13.40
2016,05,20,09,19,13.40
2016,05,20,09,20,13.40
2016,05,20,09,21,13.40
2016,05,20,09,22,13.40
2016,05,20,09,23,13.40
2016,05,20,09,24,13.40
2016,05,20,09,25,13.40
2016,05,20,09,26,13.40
2016,05,20,09,27,13.40
2016,05,20,09,28,13.40
2016,05,20,09,29,13.40
2016,05,20,09,30,13.40
2016,05,20,09,31,13.50
2016,05,20,09,32,13.60
2016,05,20,09,33,13.70
2016,05,20,09,34,13.80
2016,05,20,09,35,13.90
2016,05,20,09,36,14.00
2016,05,20,09,37,14.10
2016,05,20,09,38,14.20
2016,05,20,09,39,14.30
2016,05,20,09,40,14.30
2016,05,20,09,41,14.40
2016,05,20,09,42,14.50
2016,05,20,09,43,14.60
2016,05,20,09,44,14.60
2016,05,20,09,45,14.60
2016,05,20,09,46,14.60
2016,05,20,09,47,14.60
2016,05,20,09,48,14.60
2016,05,20,09,49,14.70
2016,05,20,09,50,14.70
2016,05,20,09,51,14.70
2016,05,20,09,52,14.70
2016,05,20,09,53,14.70
2016,05,20,09,54,14.70
2016,05,20,09,55,14.60
2016,05,20,09,56,14.60
2016,05,20,09,57,14.70
2016,05,20,09,58,14.70
2016,05,20,09,59,14.70
2016,05,20,10,00,14.60
2016,05,20,10,01,14.50
2016,05,20,10,02,14.40
2016,05,20,10,03,14.40
2016,05,20,10,04,14.40
2016,05,20,10,05,14.40
2016,05,20,10,06,14.30
2016,05,20,10,07,14.20
2016,05,20,10,08,14.20
2016,05,20,10,09,14.20
2016,05,20,10,10,14.20
2016,05,20,10,11,14.20
2016,05,20,10,12,14.30
2016,05,20,10,13,14.30
2016,05,20,10,14,14.40
2016,05,20,10,15,14.40
2016,05,20,10,16,14.40
2016,05,20,10,17,14.40
2016,05,20,10,18,14.30
2016,05,20,10,19,14.30
2016,05,20,10,20,14.30
2016,05,20,10,21,14.30
2016,05,20,10,22,14.30
2016,05,20,10,23,14.40
2016,05,20,10,24,14.50
2016,05,20,10,25,14.60
2016,05,20,10,26,14.60
2016,05,20,10,27,14.60
2016,05,20,10,28,14.60
2016,05,20,10,29,14.60
2016,05,20,10,30,14.50
2016,05,20,10,31,14.50
2016,05,20,10,32,14.60
2016,05,20,10,33,14.60
2016,05,20,10,34,14.70
2016,05,20,10,35,14.70
2016,05,20,10,36,14.60
2016,05,20,10,37,14.70
2016,05,20,10,38,14.80
2016,05,20,10,39,14.80
2016,05,20,10,40,14.80
2016,05,20,10,41,14.80
2016,05,20,10,42,14.90
2016,05,20,10,43,14.90
2016,05,20,10,44,14.90
2016,05,20,10,45,14.90
2016,05,20,10,46,14.90
2016,05,20,10,47,14.90
2016,05,20,10,48,14.90
2016,05,20,10,49,14.90
2016,05,20,10,50,14.90
2016,05,20,10,51,14.90
2016,05,20,10,52,14.90
2016,05,20,10,53,14.90
2016,05,20,10,54,14.80
2016,05,20,10,55,14.80
2016,05,20,10,56,14.80
2016,05,20,10,57,14.80
2016,05,20,10,58,14.80
2016,05,20,10,59,14.80
2016,05,20,11,00,14.80
2016,05,20,11,01,14.80
2016,05,20,11,02,14.80
2016,05,20,11,03,14.80
2016,05,20,11,04,14.80
2016,05,20,11,05,14.90
2016,05,20,11,06,14.90
2016,05,20,11,07,15.00
2016,05,20,11,08,15.00
2016,05,20,11,09,15.10
2016,05,20,11,10,15.20
2016,05,20,11,11,15.30
2016,05,20,11,12,15.30
2016,05,20,11,13,15.40
2016,05,20,11,14,15.40
2016,05,20,11,15,15.40
2016,05,20,11,16,15.40
2016,05,20,11,17,15.40
2016,05,20,11,18,15.40
2016,05,20,11,19,15.50
2016,05,20,11,20,15.50
2016,05,20,11,21,15.40
2016,05,20,11,22,15.40
2016,05,20,11,23,15.40
2016,05,20,11,24,15.40
2016,05,20,11,25,15.50
2016,05,20,11,26,15.50
2016,05,20,11,27,15.50
2016,05,20,11,28,15.60
2016,05,20,11,29,15.60
2016,05,20,11,30,15.60
2016,05,20,11,31,15.70
2016,05,20,11,32,15.80
2016,05,20,11,33,15.80
2016,05,20,11,34,15.80
2016,05,20,11,35,15.80
2016,05,20,11,36,15.80
2016,05,20,11,37,15.70
2016,05,20,11,38,15.70
2016,05,20,11,39,15.70
2016,05,20,11,40,15.70
2016,05,20,11,41,15.80
2016,05,20,11,42,15.80
2016,05,20,11,43,15.90
2016,05,20,11,44,15.90
2016,05,20,11,45,15.90
2016,05,20,11,46,15.80
2016,05,20,11,47,15.80
2016,05,20,11,48,15.70
2016,05,20,11,49,15.70
2016,05,20,11,50,15.50
2016,05,20,11,51,15.50
2016,05,20,11,52,15.50
2016,05,20,11,53,15.60
2016,05,20,11,54,15.70
2016,05,20,11,55,15.90
2016,05,20,11,56,16.00
2016,05,20,11,57,16.10
2016,05,20,11,58,16.10
2016,05,20,11,59,16.10
2016,05,20,12,00,16.00
2016,05,20,12,01,15.80
2016,05,20,12,02,15.70
2016,05,20,12,03,15.70
2016,05,20,12,04,15.60
2016,05,20,12,05,15.60
2016,05,20,12,06,15.50
2016,05,20,12,07,15.40
2016,05,20,12,08,15.40
2016,05,20,12,09,15.40
2016,05,20,12,10,15.40
2016,05,20,12,11,15.40
2016,05,20,12,12,15.30
2016,05,20,12,13,15.40
2016,05,20,12,14,15.40
2016,05,20,12,15,15.40
2016,05,20,12,16,15.40
2016,05,20,12,17,15.30
2016,05,20,12,18,15.20
2016,05,20,12,19,15.10
2016,05,20,12,20,15.00
2016,05,20,12,21,15.00
2016,05,20,12,22,15.10
2016,05,20,12,23,15.20
2016,05,20,12,24,15.30
2016,05,20,12,25,15.40
2016,05,20,12,26,15.60
2016,05,20,12,27,15.70
2016,05,20,12,28,15.80
2016,05,20,12,29,15.80
2016,05,20,12,30,15.90
2016,05,20,12,31,16.00
2016,05,20,12,32,16.10
2016,05,20,12,33,16.20
2016,05,20,12,34,16.20
2016,05,20,12,35,16.10
2016,05,20,12,36,16.00
2016,05,20,12,37,15.90
2016,05,20,12,38,15.80
2016,05,20,12,39,15.70
2016,05,20,12,40,15.60
2016,05,20,12,41,15.60
2016,05,20,12,42,15.60
2016,05,20,12,43,15.60
2016,05,20,12,44,15.70
2016,05,20,12,45,15.60
2016,05,20,12,46,15.60
2016,05,20,12,47,15.50
2016,05,20,12,48,15.50
2016,05,20,12,49,15.50
2016,05,20,12,50,15.50
2016,05,20,12,51,15.60
2016,05,20,12,52,15.60
2016,05,20,12,53,15.70
2016,05,20,12,54,15.80
2016,05,20,12,55,15.80
2016,05,20,12,56,15.90
2016,05,20,12,57,16.00
2016,05,20,12,58,16.00
2016,05,20,12,59,16.00
2016,05,20,13,00,16.00
2016,05,20,13,01,16.00
2016,05,20,13,02,16.00
2016,05,20,13,03,16.00
2016,05,20,13,04,15.90
2016,05,20,13,05,15.80
2016,05,20,13,06,15.80
2016,05,20,13,07,15.80
2016,05,20,13,08,15.70
2016,05,20,13,09,15.60
2016,05,20,13,10,15.60
2016,05,20,13,11,15.50
2016,05,20,13,12,15.40
2016,05,20,13,13,15.40
2016,05,20,13,14,15.30
2016,05,20,13,15,15.30
2016,05,20,13,16,15.30
2016,05,20,13,17,15.30
2016,05,20,13,18,15.40
2016,05,20,13,19,15.30
2016,05,20,13,20,15.20
2016,05,20,13,21,15.20
2016,05,20,13,22,15.10
2016,05,20,13,23,15.10
2016,05,20,13,24,15.10
2016,05,20,13,25,15.10
2016,05,20,13,26,15.00
2016,05,20,13,27,15.00
2016,05,20,13,28,15.00
2016,05,20,13,29,15.00
2016,05,20,13,30,15.00
2016,05,20,13,31,15.10
2016,05,20,13,32,15.20
2016,05,20,13,33,15.30
2016,05,20,13,34,15.40
2016,05,20,13,35,15.50
2016,05,20,13,36,15.60
2016,05,20,13,37,15.70
2016,05,20,13,38,15.80
2016,05,20,13,39,15.80
2016,05,20,13,40,15.80
2016,05,20,13,41,15.90
2016,05,20,13,42,15.90
2016,05,20,13,43,15.90
2016,05,20,13,44,15.90
2016,05,20,13,45,15.90
2016,05,20,13,46,15.80
2016,05,20,13,47,15.80
2016,05,20,13,48,15.80
2016,05,20,13,49,15.90
2016,05,20,13,50,16.00
2016,05,20,13,51,16.10
2016,05,20,13,52,16.10
2016,05,20,13,53,16.30
2016,05,20,13,54,16.30
2016,05,20,13,55,16.40
2016,05,20,13,56,16.30
2016,05,20,13,57,16.10
2016,05,20,13,58,15.90
2016,05,20,13,59,15.80
2016,05,20,14,00,15.70
2016,05,20,14,01,15.60
2016,05,20,14,02,15.50
2016,05,20,14,03,15.40
2016,05,20,14,04,15.30
2016,05,20,14,05,15.30
2016,05,20,14,06,15.30
2016,05,20,14,07,15.30
2016,05,20,14,08,15.30
2016,05,20,14,09,15.30
2016,05,20,14,10,15.30
2016,05,20,14,11,15.30
2016,05,20,14,12,15.30
2016,05,20,14,13,15.30
2016,05,20,14,14,15.20
2016,05,20,14,15,15.20
2016,05,20,14,16,15.20
2016,05,20,14,17,15.10
2016,05,20,14,18,15.10
2016,05,20,14,19,15.20
2016,05,20,14,20,15.20
2016,05,20,14,21,15.30
2016,05,20,14,22,15.30
2016,05,20,14,23,15.30
2016,05,20,14,24,15.30
2016,05,20,14,25,15.30
2016,05,20,14,26,15.30
2016,05,20,14,27,15.30
2016,05,20,14,28,15.30
2016,05,20,14,29,15.30
2016,05,20,14,30,15.40
2016,05,20,14,31,15.40
2016,05,20,14,32,15.40
2016,05,20,14,33,15.40
2016,05,20,14,34,15.40
2016,05,20,14,35,15.40
2016,05,20,14,36,15.40
2016,05,20,14,37,15.40
2016,05,20,14,38,15.40
2016,05,20,14,39,15.40
2016,05,20,14,40,15.40
2016,05,20,14,41,15.40
2016,05,20,14,42,15.40
2016,05,20,14,43,15.40
2016,05,20,14,44,15.30
2016,05,20,14,45,15.30
2016,05,20,14,46,15.30
2016,05,20,14,47,15.40
2016,05,20,14,48,15.40
2016,05,20,14,49,15.40
2016,05,20,14,50,15.30
2016,05,20,14,51,15.40
2016,05,20,14,52,15.40
2016,05,20,14,53,15.50
2016,05,20,14,54,15.50
2016,05,20,14,55,15.50
2016,05,20,14,56,15.50
2016,05,20,14,57,15.60
2016,05,20,14,58,15.70
2016,05,20,14,59,15.80
2016,05,20,15,00,15.90
2016,05,20,15,01,15.90
2016,05,20,15,02,15.90
2016,05,20,15,03,16.00
2016,05,20,15,04,16.00
2016,05,20,15,05,16.10
2016,05,20,15,06,16.10
2016,05,20,15,07,16.10
2016,05,20,15,08,16.10
2016,05,20,15,09,16.10
2016,05,20,15,10,16.10
2016,05,20,15,11,16.20
2016,05,20,15,12,16.30
2016,05,20,15,13,16.40
2016,05,20,15,14,16.40
2016,05,20,15,15,16.30
2016,05,20,15,16,16.20
2016,05,20,15,17,16.10
2016,05,20,15,18,16.00
2016,05,20,15,19,15.90
2016,05,20,15,20,15.90
2016,05,20,15,21,15.90
2016,05,20,15,22,16.00
2016,05,20,15,23,16.10
2016,05,20,15,24,16.20
2016,05,20,15,25,16.20
2016,05,20,15,26,16.30
2016,05,20,15,27,16.30
2016,05,20,15,28,16.30
2016,05,20,15,29,16.40
2016,05,20,15,30,16.40
2016,05,20,15,31,16.40
2016,05,20,15,32,16.40
2016,05,20,15,33,16.30
2016,05,20,15,34,16.30
2016,05,20,15,35,16.30
2016,05,20,15,36,16.40
2016,05,20,15,37,16.50
2016,05,20,15,38,16.60
2016,05,20,15,39,16.70
2016,05,20,15,40,16.90
2016,05,20,15,41,17.00
2016,05,20,15,42,17.10
2016,05,20,15,43,17.10
2016,05,20,15,44,17.20
2016,05,20,15,45,17.30
2016,05,20,15,46,17.40
2016,05,20,15,47,17.50
2016,05,20,15,48,17.50
2016,05,20,15,49,17.60
2016,05,20,15,50,17.60
2016,05,20,15,51,17.60
2016,05,20,15,52,17.50
2016,05,20,15,53,17.50
2016,05,20,15,54,17.40
2016,05,20,15,55,17.40
2016,05,20,15,56,17.40
2016,05,20,15,57,17.40
2016,05,20,15,58,17.40
2016,05,20,15,59,17.50
2016,05,20,16,00,17.50
2016,05,20,16,01,17.60
2016,05,20,16,02,17.60
2016,05,20,16,03,17.70
2016,05,20,16,04,17.70
2016,05,20,16,05,17.80
2016,05,20,16,06,17.90
2016,05,20,16,07,18.00
2016,05,20,16,08,18.00
2016,05,20,16,09,18.10
2016,05,20,16,10,18.20
2016,05,20,16,11,18.30
2016,05,20,16,12,18.30
2016,05,20,16,13,18.40
2016,05,20,16,14,18.50
2016,05,20,16,15,18.60
2016,05,20,16,16,18.60
2016,05,20,16,17,18.80
2016,05,20,16,18,18.80
2016,05,20,16,19,18.90
2016,05,20,16,20,19.10
2016,05,20,16,21,19.20
2016,05,20,16,22,19.40
2016,05,20,16,23,19.50
2016,05,20,16,24,19.50
2016,05,20,16,25,19.50
2016,05,20,16,26,19.50
2016,05,20,16,27,19.50
2016,05,20,16,28,19.40
2016,05,20,16,29,19.40
2016,05,20,16,30,19.40
2016,05,20,16,31,19.40
2016,05,20,16,32,19.40
2016,05,20,16,33,19.40
2016,05,20,16,34,19.30
2016,05,20,16,35,19.30
2016,05,20,16,36,19.30
2016,05,20,16,37,19.30
2016,05,20,16,38,19.30
2016,05,20,16,39,19.40
2016,05,20,16,40,19.40
2016,05,20,16,41,19.50
2016,05,20,16,42,19.50
2016,05,20,16,43,19.60
2016,05,20,16,44,19.60
2016,05,20,16,45,19.70
2016,05,20,16,46,19.70
2016,05,20,16,47,19.80
2016,05,20,16,48,19.90
2016,05,20,16,49,19.90
2016,05,20,16,50,20.00
2016,05,20,16,51,20.00
2016,05,20,16,52,20.10
2016,05,20,16,53,20.20
2016,05,20,16,54,20.20
2016,05,20,16,55,20.30
2016,05,20,16,56,20.30
2016,05,20,16,57,20.30
2016,05,20,16,58,20.30
2016,05,20,16,59,20.30
2016,05,20,17,00,20.30
2016,05,20,17,01,20.30
2016,05,20,17,02,20.30
2016,05,20,17,03,20.30
2016,05,20,17,04,20.30
2016,05,20,17,05,20.30
2016,05,20,17,06,20.30
2016,05,20,17,07,20.30
2016,05,20,17,08,20.20
2016,05,20,17,09,20.20
2016,05,20,17,10,20.10
2016,05,20,17,11,20.10
2016,05,20,17,12,20.10
2016,05,20,17,13,20.10
2016,05,20,17,14,20.10
2016,05,20,17,15,20.10
2016,05,20,17,16,20.10
2016,05,20,17,17,20.10
2016,05,20,17,18,20.10
2016,05,20,17,19,20.20
2016,05,20,17,20,20.20
2016,05,20,17,21,20.20
2016,05,20,17,22,20.20
2016,05,20,17,23,20.20
2016,05,20,17,24,20.30
2016,05,20,17,25,20.40
2016,05,20,17,26,20.50
2016,05,20,17,27,20.50
2016,05,20,17,28,20.60
2016,05,20,17,29,20.70
2016,05,20,17,30,20.70
2016,05,20,17,31,20.80
2016,05,20,17,32,20.80
2016,05,20,17,33,20.80